Year,Month,Day,Hour,Minute,Value (Times are PST for temperature in C)
2013,07,19,00,00,17.50
2013,07,19,00,01,17.50
2013,07,19,00,02,17.50
2013,07,19,00,03,17.50
2013,07,19,00,04,17.50
2013,07,19,00,05,17.50
2013,07,19,00,06,17.50
2013,07,19,00,07,17.50
2013,07,19,00,08,17.50
2013,07,19,00,09,17.50
2013,07,19,00,10,17.50
2013,07,19,00,11,17.50
2013,07,19,00,12,17.50
2013,07,19,00,13,17.50
2013,07,19,00,14,17.60
2013,07,19,00,15,17.60
2013,07,19,00,16,17.60
2013,07,19,00,17,17.60
2013,07,19,00,18,17.60
2013,07,19,00,19,17.60
2013,07,19,00,20,17.50
2013,07,19,00,21,17.50
2013,07,19,00,22,17.50
2013,07,19,00,23,17.50
2013,07,19,00,24,17.50
2013,07,19,00,25,17.50
2013,07,19,00,26,17.50
2013,07,19,00,27,17.50
2013,07,19,00,28,17.50
2013,07,19,00,29,17.40
2013,07,19,00,30,17.40
2013,07,19,00,31,17.40
2013,07,19,00,32,17.40
2013,07,19,00,33,17.40
2013,07,19,00,34,17.40
2013,07,19,00,35,17.40
2013,07,19,00,36,17.40
2013,07,19,00,37,17.30
2013,07,19,00,38,17.30
2013,07,19,00,39,17.30
2013,07,19,00,40,17.30
2013,07,19,00,41,17.30
2013,07,19,00,42,17.30
2013,07,19,00,43,17.30
2013,07,19,00,44,17.30
2013,07,19,00,45,17.30
2013,07,19,00,46,17.30
2013,07,19,00,47,17.30
2013,07,19,00,48,17.30
2013,07,19,00,49,17.30
2013,07,19,00,50,17.30
2013,07,19,00,51,17.30
2013,07,19,00,52,17.30
2013,07,19,00,53,17.30
2013,07,19,00,54,17.20
2013,07,19,00,55,17.20
2013,07,19,00,56,17.20
2013,07,19,00,57,17.10
2013,07,19,00,58,17.00
2013,07,19,00,59,16.90
2013,07,19,01,00,16.90
2013,07,19,01,01,16.80
2013,07,19,01,02,16.70
2013,07,19,01,03,16.70
2013,07,19,01,04,16.60
2013,07,19,01,05,16.60
2013,07,19,01,06,16.50
2013,07,19,01,07,16.50
2013,07,19,01,08,16.40
2013,07,19,01,09,16.40
2013,07,19,01,10,16.30
2013,07,19,01,11,16.30
2013,07,19,01,12,16.30
2013,07,19,01,13,16.20
2013,07,19,01,14,16.20
2013,07,19,01,15,16.20
2013,07,19,01,16,16.10
2013,07,19,01,17,16.10
2013,07,19,01,18,16.10
2013,07,19,01,19,16.10
2013,07,19,01,20,16.00
2013,07,19,01,21,16.00
2013,07,19,01,22,15.90
2013,07,19,01,23,15.90
2013,07,19,01,24,15.90
2013,07,19,01,25,15.90
2013,07,19,01,26,15.90
2013,07,19,01,27,15.90
2013,07,19,01,28,15.90
2013,07,19,01,29,15.90
2013,07,19,01,30,15.90
2013,07,19,01,31,15.90
2013,07,19,01,32,16.00
2013,07,19,01,33,16.00
2013,07,19,01,34,16.10
2013,07,19,01,35,16.10
2013,07,19,01,36,16.10
2013,07,19,01,37,16.10
2013,07,19,01,38,16.10
2013,07,19,01,39,16.10
2013,07,19,01,40,16.10
2013,07,19,01,41,16.10
2013,07,19,01,42,16.10
2013,07,19,01,43,16.10
2013,07,19,01,44,16.10
2013,07,19,01,45,16.10
2013,07,19,01,46,16.10
2013,07,19,01,47,16.10
2013,07,19,01,48,16.20
2013,07,19,01,49,16.20
2013,07,19,01,50,16.20
2013,07,19,01,51,16.20
2013,07,19,01,52,16.20
2013,07,19,01,53,16.20
2013,07,19,01,54,16.20
2013,07,19,01,55,16.20
2013,07,19,01,56,16.20
2013,07,19,01,57,16.20
2013,07,19,01,58,16.20
2013,07,19,01,59,16.20
2013,07,19,02,00,16.20
2013,07,19,02,01,16.20
2013,07,19,02,02,16.20
2013,07,19,02,03,16.20
2013,07,19,02,04,16.20
2013,07,19,02,05,16.20
2013,07,19,02,06,16.20
2013,07,19,02,07,16.20
2013,07,19,02,08,16.20
2013,07,19,02,09,16.20
2013,07,19,02,10,16.20
2013,07,19,02,11,16.20
2013,07,19,02,12,16.20
2013,07,19,02,13,16.20
2013,07,19,02,14,16.20
2013,07,19,02,15,16.20
2013,07,19,02,16,16.20
2013,07,19,02,17,16.20
2013,07,19,02,18,16.20
2013,07,19,02,19,16.20
2013,07,19,02,20,16.20
2013,07,19,02,21,16.20
2013,07,19,02,22,16.20
2013,07,19,02,23,16.20
2013,07,19,02,24,16.20
2013,07,19,02,25,16.20
2013,07,19,02,26,16.20
2013,07,19,02,27,16.20
2013,07,19,02,28,16.20
2013,07,19,02,29,16.20
2013,07,19,02,30,16.20
2013,07,19,02,31,16.20
2013,07,19,02,32,16.20
2013,07,19,02,33,16.20
2013,07,19,02,34,16.20
2013,07,19,02,35,16.20
2013,07,19,02,36,16.20
2013,07,19,02,37,16.20
2013,07,19,02,38,16.20
2013,07,19,02,39,16.20
2013,07,19,02,40,16.30
2013,07,19,02,41,16.20
2013,07,19,02,42,16.20
2013,07,19,02,43,16.10
2013,07,19,02,44,16.10
2013,07,19,02,45,16.00
2013,07,19,02,46,15.90
2013,07,19,02,47,15.80
2013,07,19,02,48,15.70
2013,07,19,02,49,15.60
2013,07,19,02,50,15.60
2013,07,19,02,51,15.50
2013,07,19,02,52,15.40
2013,07,19,02,53,15.30
2013,07,19,02,54,15.30
2013,07,19,02,55,15.20
2013,07,19,02,56,15.10
2013,07,19,02,57,15.00
2013,07,19,02,58,15.00
2013,07,19,02,59,15.00
2013,07,19,03,00,15.00
2013,07,19,03,01,15.00
2013,07,19,03,02,15.00
2013,07,19,03,03,15.00
2013,07,19,03,06,14.80
2013,07,19,03,07,14.80
2013,07,19,03,08,14.80
2013,07,19,03,09,14.70
2013,07,19,03,10,14.70
2013,07,19,03,11,14.70
2013,07,19,03,12,14.60
2013,07,19,03,13,14.60
2013,07,19,03,14,14.50
2013,07,19,03,15,14.50
2013,07,19,03,16,14.40
2013,07,19,03,17,14.40
2013,07,19,03,18,14.40
2013,07,19,03,19,14.30
2013,07,19,03,20,14.30
2013,07,19,03,21,14.30
2013,07,19,03,22,14.20
2013,07,19,03,23,14.20
2013,07,19,03,24,14.20
2013,07,19,03,25,14.20
2013,07,19,03,26,14.10
2013,07,19,03,27,14.10
2013,07,19,03,28,14.10
2013,07,19,03,29,14.00
2013,07,19,03,30,14.00
2013,07,19,03,31,14.00
2013,07,19,03,32,13.90
2013,07,19,03,33,13.90
2013,07,19,03,34,13.90
2013,07,19,03,35,13.90
2013,07,19,03,36,13.80
2013,07,19,03,37,13.80
2013,07,19,03,38,13.80
2013,07,19,03,39,13.80
2013,07,19,03,40,13.80
2013,07,19,03,41,13.80
2013,07,19,03,42,13.70
2013,07,19,03,43,13.70
2013,07,19,03,44,13.70
2013,07,19,03,45,13.70
2013,07,19,03,46,13.70
2013,07,19,03,47,13.60
2013,07,19,03,48,13.60
2013,07,19,03,49,13.60
2013,07,19,03,50,13.50
2013,07,19,03,51,13.50
2013,07,19,03,52,13.50
2013,07,19,03,53,13.50
2013,07,19,03,54,13.50
2013,07,19,03,55,13.40
2013,07,19,03,56,13.40
2013,07,19,03,57,13.40
2013,07,19,03,58,13.40
2013,07,19,03,59,13.40
2013,07,19,04,00,13.30
2013,07,19,04,01,13.30
2013,07,19,04,02,13.30
2013,07,19,04,03,13.30
2013,07,19,04,04,13.30
2013,07,19,04,05,13.30
2013,07,19,04,06,13.30
2013,07,19,04,07,13.30
2013,07,19,04,08,13.30
2013,07,19,04,09,13.30
2013,07,19,04,10,13.30
2013,07,19,04,11,13.30
2013,07,19,04,12,13.30
2013,07,19,04,13,13.30
2013,07,19,04,14,13.30
2013,07,19,04,15,13.30
2013,07,19,04,16,13.30
2013,07,19,04,17,13.30
2013,07,19,04,18,13.30
2013,07,19,04,19,13.30
2013,07,19,04,20,13.30
2013,07,19,04,21,13.30
2013,07,19,04,22,13.40
2013,07,19,04,23,13.40
2013,07,19,04,24,13.40
2013,07,19,04,25,13.40
2013,07,19,04,26,13.40
2013,07,19,04,27,13.40
2013,07,19,04,28,13.40
2013,07,19,04,29,13.40
2013,07,19,04,30,13.40
2013,07,19,04,31,13.40
2013,07,19,04,32,13.40
2013,07,19,04,33,13.40
2013,07,19,04,34,13.40
2013,07,19,04,35,13.40
2013,07,19,04,36,13.40
2013,07,19,04,37,13.40
2013,07,19,04,38,13.40
2013,07,19,04,39,13.40
2013,07,19,04,40,13.40
2013,07,19,04,41,13.40
2013,07,19,04,42,13.40
2013,07,19,04,43,13.40
2013,07,19,04,44,13.40
2013,07,19,04,45,13.40
2013,07,19,04,46,13.40
2013,07,19,04,47,13.30
2013,07,19,04,48,13.30
2013,07,19,04,49,13.30
2013,07,19,04,50,13.30
2013,07,19,04,51,13.30
2013,07,19,04,52,13.30
2013,07,19,04,53,13.20
2013,07,19,04,54,13.20
2013,07,19,04,55,13.10
2013,07,19,04,56,13.10
2013,07,19,04,57,13.00
2013,07,19,04,58,13.00
2013,07,19,04,59,13.00
2013,07,19,05,00,12.90
2013,07,19,05,01,12.90
2013,07,19,05,02,12.90
2013,07,19,05,03,12.90
2013,07,19,05,04,12.90
2013,07,19,05,05,12.90
2013,07,19,05,06,12.90
2013,07,19,05,07,12.90
2013,07,19,05,08,12.80
2013,07,19,05,09,12.80
2013,07,19,05,10,12.80
2013,07,19,05,11,12.80
2013,07,19,05,12,12.80
2013,07,19,05,13,12.80
2013,07,19,05,14,12.80
2013,07,19,05,15,12.80
2013,07,19,05,16,12.80
2013,07,19,05,17,12.80
2013,07,19,05,18,12.90
2013,07,19,05,19,12.80
2013,07,19,05,20,12.80
2013,07,19,05,21,12.80
2013,07,19,05,22,12.80
2013,07,19,05,23,12.70
2013,07,19,05,24,12.70
2013,07,19,05,25,12.70
2013,07,19,05,26,12.70
2013,07,19,05,27,12.70
2013,07,19,05,28,12.70
2013,07,19,05,29,12.70
2013,07,19,05,30,12.70
2013,07,19,05,31,12.70
2013,07,19,05,32,12.70
2013,07,19,05,33,12.70
2013,07,19,05,34,12.70
2013,07,19,05,35,12.70
2013,07,19,05,36,12.70
2013,07,19,05,37,12.70
2013,07,19,05,38,12.70
2013,07,19,05,39,12.70
2013,07,19,05,40,12.70
2013,07,19,05,41,12.70
2013,07,19,05,42,12.70
2013,07,19,05,43,12.70
2013,07,19,05,44,12.70
2013,07,19,05,45,12.70
2013,07,19,05,46,12.70
2013,07,19,05,47,12.70
2013,07,19,05,48,12.70
2013,07,19,05,49,12.70
2013,07,19,05,50,12.60
2013,07,19,05,51,12.60
2013,07,19,05,52,12.60
2013,07,19,05,53,12.50
2013,07,19,05,54,12.50
2013,07,19,05,55,12.40
2013,07,19,05,56,12.40
2013,07,19,05,57,12.40
2013,07,19,05,58,12.40
2013,07,19,05,59,12.40
2013,07,19,06,00,12.40
2013,07,19,06,01,12.40
2013,07,19,06,02,12.40
2013,07,19,06,03,12.40
2013,07,19,06,04,12.40
2013,07,19,06,05,12.40
2013,07,19,06,06,12.40
2013,07,19,06,07,12.40
2013,07,19,06,08,12.40
2013,07,19,06,09,12.40
2013,07,19,06,10,12.40
2013,07,19,06,11,12.40
2013,07,19,06,12,12.50
2013,07,19,06,13,12.50
2013,07,19,06,14,12.50
2013,07,19,06,15,12.50
2013,07,19,06,16,12.50
2013,07,19,06,17,12.50
2013,07,19,06,18,12.60
2013,07,19,06,19,12.60
2013,07,19,06,20,12.60
2013,07,19,06,21,12.70
2013,07,19,06,22,12.70
2013,07,19,06,23,12.70
2013,07,19,06,24,12.70
2013,07,19,06,25,12.70
2013,07,19,06,26,12.70
2013,07,19,06,27,12.80
2013,07,19,06,28,12.80
2013,07,19,06,29,12.80
2013,07,19,06,30,12.80
2013,07,19,06,31,12.90
2013,07,19,06,32,12.90
2013,07,19,06,33,12.90
2013,07,19,06,34,13.00
2013,07,19,06,35,13.00
2013,07,19,06,36,13.10
2013,07,19,06,37,13.20
2013,07,19,06,38,13.20
2013,07,19,06,39,13.30
2013,07,19,06,40,13.40
2013,07,19,06,41,13.40
2013,07,19,06,42,13.40
2013,07,19,06,43,13.50
2013,07,19,06,44,13.50
2013,07,19,06,45,13.60
2013,07,19,06,46,13.60
2013,07,19,06,47,13.70
2013,07,19,06,48,13.70
2013,07,19,06,49,13.70
2013,07,19,06,50,13.80
2013,07,19,06,51,13.80
2013,07,19,06,52,13.90
2013,07,19,06,53,14.00
2013,07,19,06,54,14.10
2013,07,19,06,55,14.20
2013,07,19,06,56,14.40
2013,07,19,06,57,14.50
2013,07,19,06,58,14.60
2013,07,19,06,59,14.70
2013,07,19,07,00,14.80
2013,07,19,07,01,15.00
2013,07,19,07,02,15.00
2013,07,19,07,03,15.10
2013,07,19,07,04,15.20
2013,07,19,07,05,15.40
2013,07,19,07,06,15.50
2013,07,19,07,07,15.60
2013,07,19,07,08,15.60
2013,07,19,07,09,15.70
2013,07,19,07,10,15.80
2013,07,19,07,11,15.80
2013,07,19,07,12,15.90
2013,07,19,07,13,15.90
2013,07,19,07,14,16.00
2013,07,19,07,15,16.00
2013,07,19,07,16,16.10
2013,07,19,07,17,16.10
2013,07,19,07,18,16.20
2013,07,19,07,19,16.20
2013,07,19,07,20,16.30
2013,07,19,07,21,16.40
2013,07,19,07,22,16.40
2013,07,19,07,23,16.50
2013,07,19,07,24,16.50
2013,07,19,07,25,16.60
2013,07,19,07,26,16.60
2013,07,19,07,27,16.60
2013,07,19,07,28,16.70
2013,07,19,07,29,16.70
2013,07,19,07,30,16.80
2013,07,19,07,31,16.80
2013,07,19,07,32,16.80
2013,07,19,07,33,16.90
2013,07,19,07,34,16.90
2013,07,19,07,35,17.00
2013,07,19,07,36,17.00
2013,07,19,07,37,17.10
2013,07,19,07,38,17.10
2013,07,19,07,39,17.10
2013,07,19,07,40,17.20
2013,07,19,07,41,17.20
2013,07,19,07,42,17.20
2013,07,19,07,43,17.30
2013,07,19,07,44,17.30
2013,07,19,07,45,17.30
2013,07,19,07,46,17.40
2013,07,19,07,47,17.40
2013,07,19,07,48,17.50
2013,07,19,07,49,17.50
2013,07,19,07,50,17.60
2013,07,19,07,51,17.70
2013,07,19,07,52,17.70
2013,07,19,07,53,17.70
2013,07,19,07,54,17.80
2013,07,19,07,55,17.80
2013,07,19,07,56,17.80
2013,07,19,07,57,17.90
2013,07,19,07,58,18.00
2013,07,19,07,59,18.00
2013,07,19,08,00,18.10
2013,07,19,08,01,18.20
2013,07,19,08,02,18.30
2013,07,19,08,03,18.40
2013,07,19,08,04,18.40
2013,07,19,08,05,18.50
2013,07,19,08,06,18.60
2013,07,19,08,07,18.60
2013,07,19,08,08,18.70
2013,07,19,08,09,18.80
2013,07,19,08,10,18.80
2013,07,19,08,11,18.90
2013,07,19,08,12,18.90
2013,07,19,08,13,19.00
2013,07,19,08,14,19.00
2013,07,19,08,15,19.10
2013,07,19,08,16,19.20
2013,07,19,08,17,19.20
2013,07,19,08,18,19.30
2013,07,19,08,19,19.30
2013,07,19,08,20,19.40
2013,07,19,08,21,19.50
2013,07,19,08,22,19.50
2013,07,19,08,23,19.60
2013,07,19,08,24,19.60
2013,07,19,08,25,19.60
2013,07,19,08,26,19.60
2013,07,19,08,27,19.70
2013,07,19,08,28,19.70
2013,07,19,08,29,19.70
2013,07,19,08,30,19.80
2013,07,19,08,31,19.80
2013,07,19,08,32,19.80
2013,07,19,08,33,19.80
2013,07,19,08,34,19.80
2013,07,19,08,35,19.80
2013,07,19,08,36,19.90
2013,07,19,08,37,19.90
2013,07,19,08,38,19.90
2013,07,19,08,39,20.00
2013,07,19,08,40,20.10
2013,07,19,08,41,20.10
2013,07,19,08,42,20.10
2013,07,19,08,43,20.10
2013,07,19,08,44,20.10
2013,07,19,08,45,20.10
2013,07,19,08,46,20.10
2013,07,19,08,47,20.20
2013,07,19,08,48,20.20
2013,07,19,08,49,20.20
2013,07,19,08,50,20.30
2013,07,19,08,51,20.30
2013,07,19,08,52,20.30
2013,07,19,08,53,20.30
2013,07,19,08,54,20.30
2013,07,19,08,55,20.40
2013,07,19,08,56,20.40
2013,07,19,08,57,20.40
2013,07,19,08,58,20.50
2013,07,19,08,59,20.50
2013,07,19,09,00,20.50
2013,07,19,09,01,20.60
2013,07,19,09,02,20.70
2013,07,19,09,03,20.80
2013,07,19,09,04,20.80
2013,07,19,09,05,20.90
2013,07,19,09,06,21.00
2013,07,19,09,07,21.10
2013,07,19,09,08,21.10
2013,07,19,09,09,21.10
2013,07,19,09,10,21.00
2013,07,19,09,11,21.00
2013,07,19,09,12,21.00
2013,07,19,09,13,20.90
2013,07,19,09,14,20.90
2013,07,19,09,15,20.90
2013,07,19,09,16,20.90
2013,07,19,09,17,20.90
2013,07,19,09,18,20.90
2013,07,19,09,19,20.90
2013,07,19,09,20,20.90
2013,07,19,09,21,20.90
2013,07,19,09,22,20.90
2013,07,19,09,23,20.90
2013,07,19,09,24,20.90
2013,07,19,09,25,20.90
2013,07,19,09,26,20.90
2013,07,19,09,27,20.80
2013,07,19,09,28,20.80
2013,07,19,09,29,20.80
2013,07,19,09,30,20.80
2013,07,19,09,31,20.70
2013,07,19,09,32,20.60
2013,07,19,09,33,20.60
2013,07,19,09,34,20.60
2013,07,19,09,35,20.70
2013,07,19,09,36,20.70
2013,07,19,09,37,20.70
2013,07,19,09,38,20.50
2013,07,19,09,39,20.40
2013,07,19,09,40,20.40
2013,07,19,09,41,20.30
2013,07,19,09,42,20.30
2013,07,19,09,43,20.30
2013,07,19,09,44,20.30
2013,07,19,09,45,20.20
2013,07,19,09,46,20.10
2013,07,19,09,47,20.10
2013,07,19,09,48,20.10
2013,07,19,09,49,20.10
2013,07,19,09,50,20.20
2013,07,19,09,51,20.20
2013,07,19,09,52,20.20
2013,07,19,09,53,20.20
2013,07,19,09,54,20.30
2013,07,19,09,55,20.40
2013,07,19,09,56,20.50
2013,07,19,09,57,20.50
2013,07,19,09,58,20.60
2013,07,19,09,59,20.60
2013,07,19,10,00,20.60
2013,07,19,10,01,20.60
2013,07,19,10,02,20.60
2013,07,19,10,03,20.60
2013,07,19,10,04,20.60
2013,07,19,10,05,20.50
2013,07,19,10,06,20.40
2013,07,19,10,07,20.30
2013,07,19,10,08,20.30
2013,07,19,10,09,20.30
2013,07,19,10,10,20.30
2013,07,19,10,11,20.20
2013,07,19,10,12,20.20
2013,07,19,10,13,20.10
2013,07,19,10,14,20.10
2013,07,19,10,15,20.20
2013,07,19,10,16,20.20
2013,07,19,10,17,20.20
2013,07,19,10,18,20.20
2013,07,19,10,19,20.20
2013,07,19,10,20,20.20
2013,07,19,10,21,20.20
2013,07,19,10,22,20.20
2013,07,19,10,23,20.20
2013,07,19,10,24,20.20
2013,07,19,10,25,20.30
2013,07,19,10,26,20.30
2013,07,19,10,27,20.30
2013,07,19,10,28,20.30
2013,07,19,10,29,20.30
2013,07,19,10,30,20.30
2013,07,19,10,31,20.30
2013,07,19,10,32,20.20
2013,07,19,10,33,20.30
2013,07,19,10,34,20.30
2013,07,19,10,35,20.40
2013,07,19,10,36,20.40
2013,07,19,10,37,20.50
2013,07,19,10,38,20.60
2013,07,19,10,39,20.70
2013,07,19,10,40,20.80
2013,07,19,10,41,20.80
2013,07,19,10,42,20.80
2013,07,19,10,43,20.80
2013,07,19,10,44,20.70
2013,07,19,10,45,20.70
2013,07,19,10,46,20.70
2013,07,19,10,47,20.60
2013,07,19,10,48,20.60
2013,07,19,10,49,20.70
2013,07,19,10,50,20.70
2013,07,19,10,51,20.80
2013,07,19,10,52,20.80
2013,07,19,10,53,20.90
2013,07,19,10,54,20.90
2013,07,19,10,55,21.00
2013,07,19,10,56,21.00
2013,07,19,10,57,21.10
2013,07,19,10,58,21.20
2013,07,19,10,59,21.30
2013,07,19,11,00,21.30
2013,07,19,11,01,21.20
2013,07,19,11,02,21.20
2013,07,19,11,03,21.20
2013,07,19,11,04,21.20
2013,07,19,11,05,21.10
2013,07,19,11,06,21.10
2013,07,19,11,07,21.10
2013,07,19,11,08,21.00
2013,07,19,11,09,21.00
2013,07,19,11,10,21.10
2013,07,19,11,11,21.10
2013,07,19,11,12,21.20
2013,07,19,11,13,21.10
2013,07,19,11,14,21.10
2013,07,19,11,15,21.10
2013,07,19,11,16,21.00
2013,07,19,11,17,21.00
2013,07,19,11,18,21.00
2013,07,19,11,19,21.10
2013,07,19,11,20,21.10
2013,07,19,11,21,21.20
2013,07,19,11,22,21.20
2013,07,19,11,23,21.20
2013,07,19,11,24,21.40
2013,07,19,11,25,21.50
2013,07,19,11,26,21.60
2013,07,19,11,27,21.60
2013,07,19,11,28,21.50
2013,07,19,11,29,21.40
2013,07,19,11,30,21.40
2013,07,19,11,31,21.30
2013,07,19,11,32,21.30
2013,07,19,11,33,21.30
2013,07,19,11,34,21.30
2013,07,19,11,35,21.30
2013,07,19,11,36,21.30
2013,07,19,11,37,21.30
2013,07,19,11,38,21.20
2013,07,19,11,39,21.30
2013,07,19,11,40,21.30
2013,07,19,11,41,21.40
2013,07,19,11,42,21.40
2013,07,19,11,43,21.50
2013,07,19,11,44,21.60
2013,07,19,11,45,21.60
2013,07,19,11,46,21.70
2013,07,19,11,47,21.70
2013,07,19,11,48,21.60
2013,07,19,11,49,21.60
2013,07,19,11,50,21.50
2013,07,19,11,51,21.50
2013,07,19,11,52,21.50
2013,07,19,11,53,21.50
2013,07,19,11,54,21.40
2013,07,19,11,55,21.30
2013,07,19,11,56,21.30
2013,07,19,11,57,21.30
2013,07,19,11,58,21.30
2013,07,19,11,59,21.30
2013,07,19,12,00,21.40
2013,07,19,12,01,21.60
2013,07,19,12,02,21.70
2013,07,19,12,03,21.80
2013,07,19,12,04,21.80
2013,07,19,12,05,21.80
2013,07,19,12,06,21.80
2013,07,19,12,07,21.80
2013,07,19,12,08,21.90
2013,07,19,12,09,22.00
2013,07,19,12,10,22.00
2013,07,19,12,11,22.00
2013,07,19,12,12,22.10
2013,07,19,12,13,22.20
2013,07,19,12,14,22.30
2013,07,19,12,15,22.50
2013,07,19,12,16,22.50
2013,07,19,12,17,22.50
2013,07,19,12,18,22.40
2013,07,19,12,19,22.40
2013,07,19,12,20,22.40
2013,07,19,12,21,22.50
2013,07,19,12,22,22.60
2013,07,19,12,23,22.60
2013,07,19,12,24,22.70
2013,07,19,12,25,22.70
2013,07,19,12,26,22.70
2013,07,19,12,27,22.70
2013,07,19,12,28,22.60
2013,07,19,12,29,22.60
2013,07,19,12,30,22.60
2013,07,19,12,31,22.50
2013,07,19,12,32,22.60
2013,07,19,12,33,22.60
2013,07,19,12,34,22.60
2013,07,19,12,35,22.60
2013,07,19,12,36,22.60
2013,07,19,12,37,22.50
2013,07,19,12,38,22.50
2013,07,19,12,39,22.60
2013,07,19,12,40,22.70
2013,07,19,12,41,22.80
2013,07,19,12,42,22.80
2013,07,19,12,43,22.80
2013,07,19,12,44,22.90
2013,07,19,12,45,23.00
2013,07,19,12,46,23.10
2013,07,19,12,47,23.20
2013,07,19,12,48,23.20
2013,07,19,12,49,23.20
2013,07,19,12,50,23.20
2013,07,19,12,51,23.20
2013,07,19,12,52,23.20
2013,07,19,12,53,23.30
2013,07,19,12,54,23.30
2013,07,19,12,55,23.30
2013,07,19,12,56,23.20
2013,07,19,12,57,23.20
2013,07,19,12,58,23.20
2013,07,19,12,59,23.20
2013,07,19,13,00,23.20
2013,07,19,13,01,23.20
2013,07,19,13,02,23.20
2013,07,19,13,03,23.20
2013,07,19,13,04,23.30
2013,07,19,13,05,23.40
2013,07,19,13,06,23.50
2013,07,19,13,07,23.50
2013,07,19,13,08,23.30
2013,07,19,13,09,23.30
2013,07,19,13,10,23.30
2013,07,19,13,11,23.40
2013,07,19,13,12,23.50
2013,07,19,13,13,23.60
2013,07,19,13,14,23.60
2013,07,19,13,15,23.60
2013,07,19,13,16,23.70
2013,07,19,13,17,23.70
2013,07,19,13,18,23.70
2013,07,19,13,19,23.80
2013,07,19,13,20,23.80
2013,07,19,13,21,23.80
2013,07,19,13,22,23.80
2013,07,19,13,23,23.80
2013,07,19,13,24,23.80
2013,07,19,13,25,23.90
2013,07,19,13,26,23.90
2013,07,19,13,27,23.90
2013,07,19,13,28,23.80
2013,07,19,13,29,23.70
2013,07,19,13,30,23.70
2013,07,19,13,31,23.70
2013,07,19,13,32,23.80
2013,07,19,13,33,23.90
2013,07,19,13,34,23.90
2013,07,19,13,35,23.90
2013,07,19,13,36,23.80
2013,07,19,13,37,23.70
2013,07,19,13,38,23.60
2013,07,19,13,39,23.50
2013,07,19,13,40,23.50
2013,07,19,13,41,23.40
2013,07,19,13,42,23.40
2013,07,19,13,43,23.50
2013,07,19,13,44,23.60
2013,07,19,13,45,23.80
2013,07,19,13,46,23.80
2013,07,19,13,47,23.80
2013,07,19,13,48,23.80
2013,07,19,13,49,23.70
2013,07,19,13,50,23.60
2013,07,19,13,51,23.60
2013,07,19,13,52,23.60
2013,07,19,13,53,23.70
2013,07,19,13,54,23.70
2013,07,19,13,55,23.70
2013,07,19,13,56,23.80
2013,07,19,13,57,23.90
2013,07,19,13,58,23.90
2013,07,19,13,59,23.90
2013,07,19,14,00,24.00
2013,07,19,14,01,24.00
2013,07,19,14,02,24.10
2013,07,19,14,03,24.20
2013,07,19,14,04,24.20
2013,07,19,14,05,24.20
2013,07,19,14,06,24.10
2013,07,19,14,07,24.10
2013,07,19,14,08,24.10
2013,07,19,14,09,24.00
2013,07,19,14,10,24.00
2013,07,19,14,11,24.00
2013,07,19,14,12,24.00
2013,07,19,14,13,24.10
2013,07,19,14,14,24.10
2013,07,19,14,15,24.30
2013,07,19,14,16,24.30
2013,07,19,14,17,24.40
2013,07,19,14,18,24.40
2013,07,19,14,19,24.40
2013,07,19,14,20,24.50
2013,07,19,14,21,24.60
2013,07,19,14,22,24.60
2013,07,19,14,23,24.50
2013,07,19,14,24,24.40
2013,07,19,14,25,24.40
2013,07,19,14,26,24.50
2013,07,19,14,27,24.50
2013,07,19,14,28,24.60
2013,07,19,14,29,24.60
2013,07,19,14,30,24.60
2013,07,19,14,31,24.50
2013,07,19,14,32,24.50
2013,07,19,14,33,24.40
2013,07,19,14,34,24.50
2013,07,19,14,35,24.50
2013,07,19,14,36,24.60
2013,07,19,14,37,24.70
2013,07,19,14,38,24.80
2013,07,19,14,39,24.70
2013,07,19,14,40,24.60
2013,07,19,14,41,24.60
2013,07,19,14,42,24.50
2013,07,19,14,43,24.40
2013,07,19,14,44,24.30
2013,07,19,14,45,24.30
2013,07,19,14,46,24.40
2013,07,19,14,47,24.50
2013,07,19,14,48,24.70
2013,07,19,14,49,24.70
2013,07,19,14,50,24.70
2013,07,19,14,51,24.80
2013,07,19,14,52,24.90
2013,07,19,14,53,24.90
2013,07,19,14,54,25.00
2013,07,19,14,55,25.10
2013,07,19,14,56,25.00
2013,07,19,14,57,25.00
2013,07,19,14,58,24.80
2013,07,19,14,59,24.70
2013,07,19,15,00,24.70
2013,07,19,15,01,24.70
2013,07,19,15,02,24.70
2013,07,19,15,03,24.80
2013,07,19,15,04,24.70
2013,07,19,15,05,24.60
2013,07,19,15,06,24.60
2013,07,19,15,07,24.60
2013,07,19,15,08,24.60
2013,07,19,15,09,24.60
2013,07,19,15,10,24.70
2013,07,19,15,11,24.90
2013,07,19,15,12,25.00
2013,07,19,15,13,25.00
2013,07,19,15,14,25.00
2013,07,19,15,15,24.90
2013,07,19,15,16,24.90
2013,07,19,15,17,24.80
2013,07,19,15,18,24.80
2013,07,19,15,19,24.80
2013,07,19,15,20,24.80
2013,07,19,15,21,24.80
2013,07,19,15,22,24.80
2013,07,19,15,23,24.80
2013,07,19,15,24,24.80
2013,07,19,15,25,24.80
2013,07,19,15,26,24.80
2013,07,19,15,27,24.70
2013,07,19,15,28,24.60
2013,07,19,15,29,24.50
2013,07,19,15,30,24.40
2013,07,19,15,31,24.40
2013,07,19,15,32,24.50
2013,07,19,15,33,24.50
2013,07,19,15,34,24.60
2013,07,19,15,35,24.60
2013,07,19,15,36,24.70
2013,07,19,15,37,24.80
2013,07,19,15,38,24.80
2013,07,19,15,39,24.80
2013,07,19,15,40,24.90
2013,07,19,15,41,25.00
2013,07,19,15,42,25.00
2013,07,19,15,43,25.00
2013,07,19,15,44,25.00
2013,07,19,15,45,25.00
2013,07,19,15,46,25.00
2013,07,19,15,47,25.10
2013,07,19,15,48,25.20
2013,07,19,15,49,25.20
2013,07,19,15,50,25.20
2013,07,19,15,51,25.20
2013,07,19,15,52,25.20
2013,07,19,15,53,25.30
2013,07,19,15,54,25.30
2013,07,19,15,55,25.40
2013,07,19,15,56,25.60
2013,07,19,15,57,25.70
2013,07,19,15,58,25.90
2013,07,19,15,59,25.90
2013,07,19,16,00,26.00
2013,07,19,16,01,26.10
2013,07,19,16,02,26.30
2013,07,19,16,03,26.40
2013,07,19,16,04,26.60
2013,07,19,16,05,26.70
2013,07,19,16,06,26.80
2013,07,19,16,07,26.80
2013,07,19,16,08,26.80
2013,07,19,16,09,26.90
2013,07,19,16,10,27.00
2013,07,19,16,11,27.00
2013,07,19,16,12,27.10
2013,07,19,16,13,27.10
2013,07,19,16,14,27.10
2013,07,19,16,15,27.10
2013,07,19,16,16,27.00
2013,07,19,16,17,27.00
2013,07,19,16,18,27.00
2013,07,19,16,19,27.00
2013,07,19,16,20,27.00
2013,07,19,16,21,27.00
2013,07,19,16,22,27.00
2013,07,19,16,23,27.10
2013,07,19,16,24,27.10
2013,07,19,16,25,27.20
2013,07,19,16,26,27.30
2013,07,19,16,27,27.40
2013,07,19,16,28,27.40
2013,07,19,16,29,27.30
2013,07,19,16,30,27.30
2013,07,19,16,31,27.20
2013,07,19,16,32,27.30
2013,07,19,16,33,27.40
2013,07,19,16,34,27.50
2013,07,19,16,35,27.60
2013,07,19,16,36,27.60
2013,07,19,16,37,27.60
2013,07,19,16,38,27.50
2013,07,19,16,39,27.50
2013,07,19,16,40,27.40
2013,07,19,16,41,27.30
2013,07,19,16,42,27.30
2013,07,19,16,43,27.20
2013,07,19,16,44,27.00
2013,07,19,16,45,26.90
2013,07,19,16,46,26.80
2013,07,19,16,47,26.80
2013,07,19,16,48,26.80
2013,07,19,16,49,26.80
2013,07,19,16,50,26.80
2013,07,19,16,51,26.70
2013,07,19,16,52,26.70
2013,07,19,16,53,26.70
2013,07,19,16,54,26.60
2013,07,19,16,55,26.70
2013,07,19,16,56,26.70
2013,07,19,16,57,26.70
2013,07,19,16,58,26.80
2013,07,19,16,59,26.80
2013,07,19,17,00,26.90
2013,07,19,17,01,26.90
2013,07,19,17,02,26.90
2013,07,19,17,03,27.00
2013,07,19,17,04,27.00
2013,07,19,17,05,27.00
2013,07,19,17,06,27.00
2013,07,19,17,07,27.00
2013,07,19,17,08,26.90
2013,07,19,17,09,26.90
2013,07,19,17,10,26.80
2013,07,19,17,11,26.70
2013,07,19,17,12,26.70
2013,07,19,17,13,26.60
2013,07,19,17,14,26.60
2013,07,19,17,15,26.60
2013,07,19,17,16,26.60
2013,07,19,17,17,26.60
2013,07,19,17,18,26.70
2013,07,19,17,19,26.70
2013,07,19,17,20,26.70
2013,07,19,17,21,26.70